This is the latest recevied weather packets stored in our database for station/object TF3VP-10. If no packets are shown the sender has not sent any weather packets the latest 10 day(s).
| Time | Temp. | Humidity | Pressure | Rain* | Wind** | Luminosity | Snow |
|---|---|---|---|---|---|---|---|
| 1778342178 | 7.78° C | 70% | 1036.4 hPa | - | - | - | - |
| 1778341278 | 7.78° C | 71% | 1036.5 hPa | - | - | - | - |
| 1778340379 | 7.22° C | 71% | 1036.7 hPa | - | - | - | - |
| 1778339478 | 7.22° C | 71% | 1036.6 hPa | - | - | - | - |
| 1778338578 | 7.22° C | 71% | 1036.7 hPa | - | - | - | - |
| 1778337678 | 7.22° C | 70% | 1036.7 hPa | - | - | - | - |
| 1778336779 | 7.78° C | 70% | 1037 hPa | - | - | - | - |
| 1778335879 | 7.78° C | 70% | 1037 hPa | - | - | - | - |
| 1778334978 | 7.78° C | 71% | 1037.1 hPa | - | - | - | - |
| 1778334079 | 7.22° C | 72% | 1037 hPa | - | - | - | - |
| 1778333178 | 6.67° C | 72% | 1037.2 hPa | - | - | - | - |
| 1778332278 | 7.22° C | 71% | 1037.3 hPa | - | - | - | - |
| 1778331378 | 7.22° C | 70% | 1037.5 hPa | - | - | - | - |
| 1778330478 | 6.67° C | 73% | 1037.5 hPa | - | - | - | - |
| 1778329578 | 6.67° C | 73% | 1037.5 hPa | - | - | - | - |
| 1778328679 | 6.11° C | 74% | 1037.7 hPa | - | - | - | - |
| 1778327778 | 6.11° C | 74% | 1037.6 hPa | - | - | - | - |
| 1778326878 | 6.11° C | 74% | 1037.7 hPa | - | - | - | - |
| 1778325978 | 6.11° C | 73% | 1037.8 hPa | - | - | - | - |
| 1778325078 | 5.56° C | 72% | 1037.5 hPa | - | - | - | - |
| 1778324178 | 6.11° C | 71% | 1037.7 hPa | - | - | - | - |
| 1778323278 | 6.11° C | 71% | 1037.9 hPa | - | - | - | - |
| 1778322378 | 6.11° C | 71% | 1037.8 hPa | - | - | - | - |
| 1778321478 | 5.56° C | 71% | 1037.9 hPa | - | - | - | - |
| 1778320578 | 6.11° C | 71% | 1037.8 hPa | - | - | - | - |
* Rain since midnight (hover to see other rain measurements)
** Current wind speed in m/s (hover to see current wind gust speed)